Location: Lake of the Woods (North-East)
(49.6672°N, 94.8656°W)
Time: 11:18:26
(UTC-06:00)

ISS - All Passes

Search period start: 20 December 2014 00:00
Search period end: 30 December 2014 00:00
Orbit: 404 x 415 km, 51.6° (Epoch: 20 December)

Date Brightness Start Highest point End Pass type
(mag) Time Alt. Az. Time Alt. Az. Time Alt. Az.
20 Dec - 14:28:31 10° SSW 14:31:31 32° SSE 14:34:31 10° E daylight
20 Dec - 16:04:38 10° W 16:07:56 76° NNW 16:11:14 10° ENE daylight
20 Dec - 17:41:26 10° WNW 17:44:43 61° N 17:47:58 10° E visible
20 Dec - 19:18:05 10° WNW 19:21:19 56° SSW 19:24:32 10° SE visible
20 Dec - 20:55:55 10° WSW 20:57:20 12° SW 20:58:45 10° SSW night (unlit)
21 Dec - 13:38:19 10° SSW 13:40:54 21° SE 13:43:29 10° E daylight
21 Dec - 15:13:51 10° WSW 15:17:09 84° SSE 15:20:28 10° ENE daylight
21 Dec - 16:50:36 10° W 16:53:52 58° N 16:57:08 10° E daylight
21 Dec - 18:27:17 10° WNW 18:30:35 80° SSW 18:33:51 10° ESE visible
21 Dec - 20:04:21 10° W 20:06:47 19° SW 20:09:13 10° S visible
22 Dec - 12:48:33 10° S 12:50:18 14° SE 12:52:03 10° ESE daylight
22 Dec - 14:23:06 10° SW 14:26:21 60° SSE 14:29:37 10° ENE daylight
22 Dec - 15:59:42 10° W 16:02:59 61° N 16:06:15 10° ENE daylight
22 Dec - 17:36:26 10° WNW 17:39:45 79° NNE 17:43:02 10° ESE visible
22 Dec - 19:13:12 10° W 19:16:08 30° SW 19:19:02 10° SSE visible
23 Dec - 13:32:26 10° SW 13:35:34 40° SSE 13:38:41 10° E daylight
23 Dec - 15:08:45 10° W 15:12:03 69° N 15:15:21 10° ENE daylight
23 Dec - 16:45:32 10° WNW 16:48:50 66° N 16:52:06 10° E daylight
23 Dec - 18:22:12 10° WNW 18:25:22 45° SSW 18:28:30 10° SE visible
24 Dec - 12:41:56 10° SSW 12:44:46 26° SE 12:47:36 10° E daylight
24 Dec - 14:17:47 10° WSW 14:21:06 85° NNW 14:24:25 10° ENE daylight
24 Dec - 15:54:34 10° WNW 15:57:51 59° N 16:01:06 10° E daylight
24 Dec - 17:31:13 10° WNW 17:34:30 67° SSW 17:37:45 10° ESE visible
24 Dec - 19:08:34 10° W 19:10:36 15° SW 19:12:37 10° S visible
25 Dec - 11:51:44 10° S 11:53:59 17° SE 11:56:15 10° E daylight
25 Dec - 13:26:50 10° WSW 13:30:08 72° SSE 13:33:26 10° ENE daylight
25 Dec - 15:03:32 10° W 15:06:48 59° N 15:10:04 10° ENE daylight
25 Dec - 16:40:13 10° WNW 16:43:32 89° NNE 16:46:49 10° ESE daylight
25 Dec - 18:17:06 10° W 18:19:49 24° SW 18:22:31 10° SSE visible
26 Dec - 11:02:23 10° SSE 11:03:14 11° SE 11:04:04 10° ESE daylight
26 Dec - 12:35:57 10° SW 12:39:10 49° SSE 12:42:23 10° ENE daylight
26 Dec - 14:12:26 10° W 14:15:44 64° N 14:19:01 10° ENE daylight
26 Dec - 15:49:11 10° WNW 15:52:29 72° NNE 15:55:46 10° E daylight
26 Dec - 17:25:52 10° W 17:28:56 36° SSW 17:31:59 10° SE visible
27 Dec - 11:45:12 10° SSW 11:48:12 33° SSE 11:51:13 10° E daylight
27 Dec - 13:21:18 10° W 13:24:37 76° NNW 13:27:55 10° ENE daylight
27 Dec - 14:58:05 10° WNW 15:01:22 62° N 15:04:38 10° E daylight
27 Dec - 16:34:43 10° WNW 16:37:57 55° SSW 16:41:10 10° SE daylight
27 Dec - 18:12:33 10° WSW 18:13:56 12° SW 18:15:19 10° SSW visible
28 Dec - 10:54:39 10° SSW 10:57:15 21° SE 10:59:51 10° E daylight
28 Dec - 12:30:10 10° WSW 12:33:29 84° SSE 12:36:48 10° ENE daylight
28 Dec - 14:06:54 10° W 14:10:11 58° N 14:13:27 10° E daylight
28 Dec - 15:43:33 10° WNW 15:46:52 79° SSW 15:50:09 10° ESE daylight
28 Dec - 17:20:37 10° W 17:23:03 19° SW 17:25:28 10° S visible
29 Dec - 10:04:33 10° S 10:06:18 14° SE 10:08:04 10° ESE daylight
29 Dec - 11:39:05 10° SW 11:42:21 60° SSE 11:45:37 10° ENE daylight
29 Dec - 13:15:40 10° W 13:18:57 61° N 13:22:13 10° ENE daylight
29 Dec - 14:52:22 10° WNW 14:55:41 79° NNE 14:58:59 10° ESE daylight
29 Dec - 16:29:07 10° W 16:32:03 30° SW 16:34:57 10° SSE daylight
